This is the latest recevied weather packets stored in our database for station/object KQ4PPF. If no packets are shown the sender has not sent any weather packets the latest 10 day(s).
| Time | Temp. | Humidity | Pressure | Rain* | Wind** | Luminosity | Snow |
|---|---|---|---|---|---|---|---|
| 1778010327 | 25.56° C | 45% | 1011.7 hPa | 0 mm | - | 79 W/m² | - |
| 1778010022 | 25.56° C | 45% | 1011.9 hPa | 0 mm | - | 109 W/m² | - |
| 1778009720 | 25.56° C | 44% | 1012 hPa | 0 mm | - | 131 W/m² | - |
| 1778009417 | 25° C | 46% | 1012.4 hPa | 0 mm | - | 153 W/m² | - |
| 1778009115 | 25° C | 44% | 1012.5 hPa | 0 mm | - | 170 W/m² | - |
| 1778008812 | 24.44° C | 44% | 1012.5 hPa | 0 mm | - | 165 W/m² | - |
| 1778008505 | 25° C | 42% | 1012.2 hPa | 0 mm | - | 128 W/m² | - |
| 1778008203 | 25.56° C | 40% | 1012.4 hPa | 0 mm | - | 90 W/m² | - |
| 1778007897 | 25° C | 44% | 1012.4 hPa | 0 mm | - | 97 W/m² | - |
| 1778007592 | 25° C | 44% | 1012.4 hPa | 0 mm | - | 117 W/m² | - |
| 1778007290 | 25° C | 46% | 1012.5 hPa | 0 mm | - | 108 W/m² | - |
| 1778006986 | 25° C | 46% | 1012.2 hPa | 0 mm | - | 91 W/m² | - |
| 1778006683 | 25.56° C | 44% | 1012.5 hPa | 0 mm | - | 104 W/m² | - |
| 1778006379 | 25.56° C | 46% | 1012.7 hPa | 0 mm | - | 123 W/m² | - |
| 1778006076 | 25.56° C | 44% | 1012.8 hPa | 0 mm | - | 142 W/m² | - |
| 1778005773 | 25.56° C | 44% | 1013 hPa | 0 mm | - | 154 W/m² | - |
| 1778005470 | 25.56° C | 42% | 1012.9 hPa | 0 mm | - | 146 W/m² | - |
| 1778005166 | 25.56° C | 40% | 1013.3 hPa | 0 mm | - | 165 W/m² | - |
| 1778004864 | 25° C | 42% | 1013.3 hPa | 0 mm | - | 178 W/m² | - |
| 1778004560 | 25° C | 43% | 1013.4 hPa | 0 mm | - | 209 W/m² | - |
| 1778004257 | 25° C | 45% | 1013.3 hPa | 0 mm | - | 468 W/m² | - |
| 1778003953 | 24.44° C | 44% | 1013.2 hPa | 0 mm | - | 682 W/m² | - |
| 1778003650 | 24.44° C | 42% | 1013 hPa | 0 mm | - | 637 W/m² | - |
| 1778003346 | 25° C | 43% | 1013.4 hPa | 0 mm | - | 584 W/m² | - |
| 1778003044 | 25° C | 42% | 1013.3 hPa | 0 mm | - | 561 W/m² | - |
* Rain latest hour (hover to see other rain measurements)
** Current wind speed in m/s (hover to see current wind gust speed)